{"data":{"norad_id":68040,"epoch":"2026-05-25T01:08:14.801856Z","epoch_age_seconds":67361,"freshness":"FRESH","line1":"1 68040U 26041A   26145.04739354  .00011581  00000+0  35334-3 0  9990","line2":"2 68040  53.1580  53.4645 0000952  80.5322 279.5788 15.34402859 13107","mean_motion":15.34402859,"eccentricity":9.52e-5,"inclination_deg":53.158,"raan_deg":53.4645,"arg_perigee_deg":80.5322,"mean_anomaly_deg":279.5788,"bstar":0.00035334,"rev_number":1310,"period_min":93.847583218039,"perigee_km":462.04349548789,"apogee_km":463.34598985169,"semimajor_km":6840.8317426698,"source":"CELESTRAK","updated_at":"2026-05-25T13:38:21.809883Z"}}